RH
84 80 77 75 76 78 79 81 81 81 82 84 88 92 95 98 99 101 101 100 100 100 100 100 100 100 100 100 99 99 99 100 100 100 100 100 100 100 100 100 100 100 100 100 100 100 100 100 101 100 100 100 99 98 96 97 97 96 96 95 96 99 100 100 100 98 99 100 100 100 100 100 100 100 100 100 100 100 100 100 100 100 100 100 100
74 72 70 68 68 68 68 68 70 71 71 73 76 80 83 86 89 93 96 98 100 101 101 100 100 99 100 100 100 100 100 101 100 100 100 100 99 99 99 100 100 99 99 99 99 100 100 99 99 98 97 93 90 89 87 89 91 92 94 95 97 99 100 100 99 97 97 99 100 100 100 100 100 100 100 100 100 100 100 100 100 100 100 100 100
62 62 62 62 62 61 60 60 60 61 62 63 65 68 71 73 76 78 80 84 88 92 95 98 100 101 101 100 100 100 99 100 100 100 100 101 101 100 100 100 100 100 100 100 100 100 99 98 97 98 97 93 91 92 92 93 95 97 98 99 100 100 100 100 98 95 94 95 97 98 99 99 99 100 100 100 100 100 100 100 100 100 100 100 100
49 50 50 49 48 47 48 48 49 51 52 53 54 57 60 63 66 68 70 72 73 76 79 83 88 93 96 99 100 101 101 101 100 100 100 99 100 100 100 100 100 100 100 100 100 100 99 99 99 99 99 99 99 99 100 100 100 100 100 100 100 100 100 100 99 97 95 93 93 95 97 98 99 100 100 100 100 100 100 100 100 100 100 100 100
32 32 32 32 30 29 28 28 28 29 30 31 33 36 41 46 51 55 60 64 66 67 68 69 70 74 78 83 87 90 93 96 98 100 100 101 101 101 101 101 100 100 101 101 101 101 100 100 101 101 100 100 101 100 100 100 100 100 100 100 100 100 100 100 100 100 96 91 91 95 98 99 99 100 100 100 101 100 100 100 100 100 100 100 100
25 25 25 25 26 28 29 29 29 29 27 26 23 21 21 22 25 30 35 42 48 53 58 61 62 64 65 67 69 72 74 76 78 80 82 84 86 88 89 90 90 91 92 93 94 94 95 95 95 95 96 97 99 100 101 101 101 101 100 100 100 100 100 100 100 100 98 95 95 97 99 100 100 100 100 100 100 100 100 100 100 100 100 100 100
16 16 16 17 18 21 24 28 31 34 37 39 39 39 35 30 26 22 19 19 22 26 32 38 45 51 56 58 61 63 64 64 65 65 65 64 64 65 66 66 68 70 71 72 73 73 74 75 75 75 76 77 79 83 88 91 93 96 98 100 100 100 100 100 100 100 99 99 100 99 100 100 100 100 100 100 100 100 100 100 100 100 100 100 100
11 11 11 11 12 12 14 16 19 22 26 30 35 41 45 48 48 45 41 35 29 24 20 19 20 24 30 37 44 50 55 60 62 62 62 61 59 59 59 60 61 62 64 66 68 68 68 68 68 68 69 69 69 70 71 73 75 79 86 92 95 97 98 99 100 100 100 100 100 99 100 100 99 100 100 100 100 100 100 100 100 100 100 99 100
12 12 11 11 11 11 11 11 11 12 13 15 18 22 27 35 41 47 51 53 52 49 43 38 31 25 20 19 20 25 32 41 49 55 58 60 61 60 60 61 62 64 66 68 70 72 74 75 76 76 76 76 76 76 75 74 74 76 81 87 89 91 93 95 97 99 100 100 99 99 100 100 99 100 100 100 100 100 100 100 100 100 100 100 100
14 14 13 13 13 12 12 12 11 11 10 10 10 12 15 19 25 32 38 42 47 51 53 54 53 49 44 38 31 25 21 20 23 28 35 43 51 57 60 62 62 62 63 65 67 69 71 73 74 76 77 78 78 79 80 81 82 83 85 88 90 91 93 96 98 99 99 99 100 100 100 100 100 100 100 100 100 100 100 100 100 101 100 99 98
15 15 15 14 14 13 13 12 12 12 11 10 10 10 12 14 19 27 32 37 42 46 50 52 53 53 54 54 53 50 44 37 29 24 21 20 23 30 39 48 56 60 62 62 64 65 67 69 70 71 72 73 75 77 79 81 84 87 89 91 93 96 97 99 100 100 99 98 99 100 100 100 100 99 100 100 99 99 100 100 99 99 99 97 97
16 16 16 15 15 14 13 12 12 11 10 10 10 10 11 13 19 27 32 39 45 50 52 54 54 54 54 54 57 59 59 57 52 47 41 34 27 22 19 21 28 38 49 58 62 64 65 66 68 71 72 73 74 74 75 77 79 81 85 89 94 98 99 99 100 100 100 99 98 99 100 100 100 99 100 100 99 99 99 99 98 98 98 99 98
16 16 15 15 14 13 12 11 10 10 10 11 11 14 18 24 31 37 41 46 51 54 54 55 56 56 55 56 59 61 62 61 59 59 59 56 52 46 38 29 20 16 20 32 45 55 62 63 64 66 69 72 75 75 75 76 77 78 79 82 90 97 99 99 100 100 100 99 99 100 100 100 100 100 100 100 99 99 99 99 98 96 96 98 97
13 13 12 12 11 10 10 9 9 11 13 16 20 26 35 41 45 49 52 54 56 56 56 57 57 57 56 56 58 60 61 61 62 64 65 66 66 63 60 55 47 35 23 15 18 27 41 53 59 62 64 65 68 72 75 77 78 80 81 83 90 97 100 99 100 100 100 100 100 100 100 100 100 100 100 100 100 100 100 98 95 94 96 97 93
10 9 9 9 9 8 8 9 13 19 26 32 38 44 48 51 53 54 56 57 57 57 57 58 58 58 57 57 59 60 59 58 62 66 69 72 73 72 72 70 69 66 56 43 30 19 17 24 36 50 59 62 63 64 67 71 75 78 81 84 90 97 100 100 100 100 100 100 100 100 100 100 100 100 100 100 100 100 98 97 99 99 95 91 89
8 8 8 8 8 8 9 12 20 31 42 49 51 53 55 57 59 61 61 60 59 58 58 57 57 57 55 54 56 59 57 56 61 69 74 77 79 82 83 83 83 84 83 76 67 53 37 24 18 24 35 47 57 62 62 63 67 70 76 83 88 92 97 100 99 99 100 101 100 100 100 100 100 100 100 100 100 99 96 96 99 96 89 89 95
8 8 7 7 7 7 9 13 22 34 46 54 56 56 58 61 64 66 67 66 64 62 62 63 64 65 65 64 66 67 65 61 61 66 70 73 77 82 87 89 92 95 96 92 87 83 77 63 47 34 26 28 38 49 56 60 63 65 71 78 84 90 95 98 98 98 99 100 100 100 100 100 100 100 100 99 99 98 93 93 97 96 93 97 100
9 8 8 8 7 7 8 10 15 22 32 44 52 55 58 60 63 66 67 67 67 68 70 72 73 75 74 73 74 77 77 74 71 70 70 70 71 75 80 85 90 95 99 100 98 97 96 93 87 78 65 54 45 43 45 49 55 64 72 78 86 93 98 99 98 98 99 98 99 101 100 100 100 100 100 100 100 99 97 97 100 100 99 100 100
9 9 9 9 9 9 8 9 10 12 16 25 35 43 51 56 59 61 64 65 67 69 71 72 73 73 73 71 71 73 74 75 74 74 74 72 72 72 74 77 81 86 91 95 98 100 100 100 100 98 96 93 85 76 67 59 57 65 73 82 92 98 100 100 100 100 100 99 100 101 100 100 100 100 100 100 100 100 100 100 100 100 100 100 100
10 11 11 11 11 10 10 9 9 9 10 12 18 26 37 46 52 58 62 64 67 69 69 69 67 66 65 64 64 66 68 71 74 76 78 77 77 78 80 80 80 83 86 89 93 97 99 100 101 100 100 100 100 99 97 90 84 83 83 88 96 101 100 99 100 100 100 100 100 100 100 100 100 100 100 100 100 100 100 100 100 100 100 100 100
11 12 11 11 11 10 10 10 10 10 10 10 11 13 18 26 35 44 51 56 60 64 67 68 67 66 64 63 64 64 64 66 70 75 80 83 83 84 85 86 87 88 90 93 95 97 99 98 98 99 100 100 100 100 100 100 100 99 97 97 100 101 99 100 100 100 100 100 100 100 100 100 100 100 100 100 100 100 100 100 100 100 100 100 100
12 12 12 12 12 11 11 11 10 11 11 10 11 10 10 13 18 24 31 37 44 50 56 61 67 69 69 67 67 68 67 65 66 69 74 80 82 82 83 85 88 91 93 94 95 98 100 100 98 97 97 98 101 101 101 100 100 100 100 100 100 100 100 100 101 100 100 100 100 99 98 98 100 100 100 100 100 100 100 100 100 99 100 100 100
13 13 13 12 13 13 13 12 12 12 11 11 12 12 12 12 13 14 17 20 25 30 37 45 55 65 71 72 72 73 74 73 70 70 73 76 78 79 81 83 85 89 92 94 94 95 98 100 100 99 97 95 95 96 98 100 100 100 100 100 100 100 100 100 100 100 100 100 100 100 99 99 100 100 100 100 100 100 100 100 100 100 100 100 100
14 15 14 14 14 14 13 13 12 12 12 13 14 13 13 13 13 12 12 12 14 15 18 24 32 43 56 66 71 75 79 82 81 80 80 81 82 82 83 84 85 85 88 93 96 97 97 97 98 99 99 98 96 94 96 99 100 100 100 100 100 99 100 100 100 100 100 100 100 100 100 100 100 100 100 100 100 100 100 100 100 101 100 98 96
16 17 16 15 16 15 14 14 13 13 14 14 14 13 12 12 12 12 12 11 11 11 11 12 15 20 30 43 56 66 75 83 88 88 87 88 88 86 87 89 89 87 86 89 94 96 94 92 92 93 95 99 99 98 98 100 100 100 100 100 100 99 100 101 100 100 100 100 100 100 100 100 100 100 100 100 100 100 100 100 100 98 94 91 88
18 18 18 17 17 17 16 15 14 15 16 15 14 13 11 11 11 10 11 11 10 10 10 10 11 12 14 21 33 46 60 74 86 93 95 94 92 90 90 92 92 90 87 85 88 92 94 92 90 89 91 95 99 100 100 100 100 100 100 100 100 100 100 101 100 100 100 100 100 100 100 100 100 100 100 100 100 100 101 99 96 91 86 84 82
20 20 20 19 19 19 18 17 17 18 18 16 14 13 12 12 11 10 9 9 8 8 9 8 9 10 11 12 16 24 37 53 72 88 97 99 98 95 92 92 92 91 87 84 84 88 95 98 97 96 96 98 100 100 100 100 100 100 100 100 100 100 100 100 100 100 100 100 100 100 100 100 100 100 100 100 100 100 98 93 87 83 81 81 81
21 22 22 21 21 20 19 19 21 20 19 16 15 14 13 12 11 10 8 7 7 6 6 6 7 8 10 11 13 15 20 31 50 72 89 98 101 99 93 90 88 87 87 87 85 88 96 100 100 100 100 100 100 100 100 100 100 100 100 100 100 100 100 100 100 100 100 100 100 100 100 100 100 100 100 101 99 95 89 84 80 79 79 81 83
23 23 23 22 21 20 20 22 23 21 20 18 16 15 14 12 11 10 7 6 5 4 4 5 6 7 9 10 12 13 14 19 31 53 76 92 99 100 97 91 87 87 88 88 87 91 97 99 99 100 100 100 100 100 100 100 100 100 100 100 100 100 100 100 100 100 100 100 100 101 100 100 100 101 100 97 92 87 82 78 77 78 78 79 78
24 24 24 22 21 21 22 24 24 22 21 20 18 16 14 12 10 8 6 4 4 4 4 4 4 5 7 9 11 12 14 15 20 37 65 88 97 99 100 96 90 88 88 87 89 94 98 97 98 100 100 100 100 100 100 100 100 100 100 100 100 100 100 100 100 100 100 100 100 100 100 101 101 98 94 88 84 81 79 77 76 75 71 64 56
25 24 23 22 22 23 25 25 24 22 21 20 19 17 15 12 8 5 4 4 4 4 4 4 5 5 7 9 10 12 14 16 18 29 57 86 98 100 101 98 91 87 86 87 90 94 96 99 100 100 100 100 100 100 100 100 100 100 100 100 100 100 100 100 100 100 100 100 100 101 101 100 96 90 86 83 80 79 77 74 68 59 47 37 31
26 24 23 23 23 25 26 25 24 24 22 21 19 17 14 10 6 4 4 4 4 5 5 5 5 5 6 9 11 12 14 15 17 28 54 83 99 100 99 98 95 89 86 90 92 91 95 100 101 99 100 101 100 100 101 100 100 101 100 100 100 100 100 100 100 100 100 100 101 99 96 91 88 84 82 80 79 77 73 62 48 34 25 22 22
26 24 23 24 26 27 27 26 26 25 23 21 19 16 12 8 5 4 5 5 5 5 5 5 5 6 7 8 10 12 13 15 19 33 57 83 99 100 98 98 97 91 91 97 97 92 92 98 101 100 100 101 100 100 100 100 100 100 100 100 100 100 100 100 100 100 101 98 95 91 88 86 84 82 80 79 74 65 51 36 26 21 20 21 19
26 25 25 27 27 27 27 27 27 25 23 21 18 14 10 6 4 4 5 5 6 6 6 5 6 6 7 8 9 11 14 18 26 42 65 87 99 100 98 97 95 93 95 101 101 94 89 93 100 101 100 100 100 100 100 100 100 100 100 100 100 100 100 101 100 97 94 91 88 85 84 84 82 80 76 67 53 37 25 18 19 21 20 17 15
27 28 29 30 29 28 28 28 27 26 23 21 18 13 9 6 4 5 5 5 6 6 6 6 6 6 6 7 9 12 18 26 38 54 74 90 97 97 96 96 96 97 99 100 101 98 91 90 96 100 100 99 100 100 100 100 100 100 100 100 100 100 99 97 95 91 88 86 84 83 83 82 79 70 57 41 26 18 18 20 21 19 15 13 12
29 31 32 31 30 29 29 29 28 27 24 21 17 13 8 6 5 5 5 6 6 7 6 6 6 6 6 7 10 14 21 34 50 65 78 87 91 92 95 96 97 100 100 97 95 94 90 88 92 96 96 97 98 99 100 100 100 100 101 100 98 95 93 91 89 87 85 84 83 82 80 74 62 45 29 20 17 19 22 22 18 14 11 11 12
32 33 33 32 31 31 31 30 29 27 25 21 17 13 9 6 5 5 6 6 7 7 7 7 7 6 6 8 12 18 26 39 55 69 78 84 88 91 95 98 99 101 100 96 93 93 93 92 92 93 94 96 98 100 100 100 101 100 98 94 91 89 89 89 87 85 84 83 81 76 64 48 32 21 17 19 23 25 23 18 13 11 11 12 13
35 34 34 34 33 33 32 31 30 28 25 22 17 13 9 6 5 5 6 7 7 7 7 8 7 7 7 9 14 23 35 48 61 72 80 85 89 92 96 99 101 100 97 93 92 96 99 96 92 94 98 99 100 101 101 99 98 95 90 88 88 88 88 88 86 84 82 76 64 49 33 21 16 18 22 25 26 24 19 15 12 11 12 13 13
36 36 36 36 35 34 34 33 31 29 26 23 18 13 9 7 6 6 6 7 8 8 8 8 8 7 7 8 14 28 44 56 65 74 82 85 89 93 96 99 101 99 94 89 91 96 99 96 92 92 95 96 97 97 96 93 90 89 88 88 88 87 87 86 83 77 67 51 34 21 15 15 20 24 27 27 25 20 15 12 12 12 13 13 14
37 38 38 38 37 36 35 34 32 30 27 24 19 15 10 7 6 6 6 7 8 9 8 9 9 8 8 8 13 28 50 63 68 74 82 85 87 92 96 98 100 99 92 87 88 91 92 91 89 89 91 93 93 91 89 88 87 87 88 88 87 86 85 80 70 54 37 23 15 13 15 21 26 29 29 26 22 17 13 12 12 13 13 14 15
40 40 40 40 39 38 37 35 34 32 29 26 21 16 11 8 6 6 7 8 9 9 10 10 10 9 9 8 11 26 52 71 75 76 83 87 87 90 95 98 98 96 90 85 85 87 88 87 87 89 90 91 90 88 86 86 87 87 87 86 84 80 73 58 40 26 16 12 12 16 22 28 31 31 28 24 18 15 13 12 12 13 13 14 15
42 42 42 42 41 40 39 37 36 34 31 28 23 18 13 9 7 6 7 8 9 10 10 10 11 10 10 9 9 18 44 72 83 82 85 90 90 89 93 97 97 94 90 87 85 86 88 88 87 88 89 89 89 89 88 88 88 88 87 84 76 63 47 30 18 11 10 12 17 22 28 32 32 29 25 21 18 15 13 12 13 13 14 14 15
45 45 45 45 44 43 42 39 38 36 34 30 26 21 15 10 8 7 7 8 9 11 11 11 12 11 11 11 9 10 28 60 84 88 87 90 94 92 90 94 97 96 93 92 90 89 91 93 93 92 92 92 92 92 91 91 91 88 82 75 62 43 25 14 10 10 12 16 22 28 32 32 31 28 24 20 17 15 13 13 13 13 14 15 15
48 48 49 48 47 46 45 42 40 39 37 34 30 24 18 12 8 7 7 8 9 11 11 12 12 12 11 12 12 9 13 36 69 90 91 90 95 97 94 92 96 98 98 96 95 94 94 96 98 99 98 97 97 97 96 94 92 86 74 59 41 24 13 9 9 11 14 19 26 31 33 32 30 27 23 20 17 15 13 13 13 14 14 15 16
51 51 51 51 51 50 49 46 44 42 40 37 33 28 21 15 9 7 7 9 10 11 12 12 13 13 13 12 13 12 9 16 43 77 94 93 92 98 100 96 95 98 100 100 99 97 96 96 97 100 101 101 100 100 100 99 93 80 60 39 22 12 9 10 11 13 16 22 29 33 35 34 31 27 23 20 17 15 14 13 13 14 15 15 16
52 52 52 53 53 53 52 50 49 46 43 40 37 32 25 17 10 7 7 8 10 11 12 13 13 14 14 13 13 14 13 10 19 50 83 97 95 95 99 101 99 98 99 101 99 94 91 91 93 97 100 102 101 100 101 101 92 71 44 22 11 8 9 10 12 15 19 24 31 36 38 36 33 28 24 21 17 15 15 14 13 14 15 15 16
49 51 52 52 53 54 54 54 52 50 47 44 41 36 28 19 11 7 6 8 10 12 12 13 13 13 14 15 14 13 15 13 10 22 51 83 97 98 97 99 102 101 100 100 97 90 83 80 83 88 94 98 100 100 100 98 85 60 32 13 8 8 10 11 13 16 21 27 33 38 39 38 34 30 27 23 20 17 15 14 13 13 14 14 14
43 45 47 49 51 53 54 55 55 53 51 48 45 40 33 22 13 8 6 7 10 12 12 13 14 13 13 16 16 14 14 16 14 11 20 46 77 98 102 99 99 101 102 100 97 92 82 73 69 72 80 88 93 93 93 89 74 48 23 10 7 9 10 11 13 16 21 27 33 37 39 39 37 34 30 27 24 21 18 16 15 13 13 12 13
37 39 42 45 47 48 50 52 54 55 54 52 48 44 37 26 15 9 6 7 10 13 14 14 14 14 14 14 16 17 15 15 17 16 13 18 41 74 97 103 100 99 101 102 101 97 91 80 67 58 59 67 77 82 82 77 62 37 16 7 8 10 11 11 13 16 21 26 30 35 37 38 38 36 34 31 29 26 23 20 17 15 13 12 12
35 36 39 42 45 46 47 49 50 53 55 54 52 48 41 30 17 9 7 8 10 12 15 15 15 15 15 14 14 16 17 15 15 17 17 14 17 36 67 93 104 102 99 100 101 101 99 93 82 66 52 47 52 60 65 63 50 30 12 6 8 10 11 12 12 14 18 24 28 32 36 38 39 38 37 36 34 32 30 28 24 21 18 15 12
34 35 38 42 46 48 48 46 46 49 52 54 54 51 45 34 21 10 6 8 10 12 15 17 17 16 16 15 14 14 15 16 16 16 18 19 16 16 30 58 85 100 103 100 99 100 102 101 97 87 72 54 41 38 42 45 39 25 12 7 8 10 11 11 12 13 16 20 25 30 34 37 39 40 40 40 40 39 39 37 34 31 27 22 17
Wind_Speed
10 9 10 10 10 11 11 10 10 10 11 11 12 12 12 13 14 16 18 20 23 26 29 32 35 37 38 39 40 41 44 46 48 49 49 49 48 47 47 47 48 48 48 49 50 50 51 52 53 51 49 49 49 48 48 49 50 51 52 52 52 53 53 55 57 59 57 55 54 52 51 51 50 50 50 50 50 50 50 51 51 52 52 52 53
10 9 9 10 11 11 12 12 12 12 12 13 13 13 13 13 14 15 16 18 19 20 23 25 28 30 33 35 36 38 40 41 44 45 47 48 49 50 50 51 51 51 50 50 49 48 48 48 48 47 46 46 46 46 47 47 49 50 51 52 53 53 54 54 56 58 58 56 54 53 52 52 51 51 51 52 51 50 51 51 51 52 52 52 53
11 10 10 10 11 12 12 13 13 14 14 14 15 15 16 15 16 16 16 17 18 19 20 22 24 25 27 29 31 33 35 36 38 39 41 42 44 45 47 47 47 46 46 45 44 44 44 44 44 43 43 43 43 43 44 45 46 48 49 50 51 52 52 53 55 57 58 57 55 55 53 52 52 52 51 52 52 51 51 51 50 50 50 50 51
13 13 13 14 15 15 16 16 16 16 17 17 17 18 18 18 18 18 18 19 19 19 20 21 22 23 25 26 27 29 30 32 33 34 35 36 37 38 38 39 39 39 39 39 40 40 41 41 41 40 40 40 41 41 42 42 42 42 43 44 45 46 48 49 51 52 53 53 52 52 52 52 52 51 51 51 50 50 49 49 48 48 47 47 48
14 14 15 16 16 17 18 18 19 19 19 20 20 20 21 21 21 21 21 21 21 22 22 22 22 23 24 25 26 27 28 29 31 31 32 33 34 35 35 36 37 37 37 38 38 38 39 39 39 38 38 39 39 39 38 38 38 37 37 37 38 39 40 41 42 43 44 44 44 45 46 46 46 46 46 46 46 45 44 44 44 43 43 44 44
14 14 15 15 15 15 16 16 17 18 19 19 20 21 22 23 23 24 24 24 24 25 25 25 25 25 25 26 27 27 28 29 30 31 32 33 35 36 36 37 38 38 39 39 39 39 39 39 39 39 39 39 39 38 38 38 37 37 37 36 36 36 37 37 37 37 37 38 38 38 38 39 39 39 40 40 40 40 39 38 38 38 39 40 40
16 16 16 16 16 16 16 16 16 16 16 17 18 19 20 21 22 23 24 25 26 26 27 28 28 28 28 29 29 29 30 31 31 32 34 35 36 37 37 38 39 39 40 40 41 41 41 41 41 41 41 41 41 41 41 41 40 40 39 38 38 38 38 37 37 37 38 38 38 37 37 37 37 38 37 37 37 37 36 35 35 35 36 36 36
15 15 16 16 16 16 16 16 16 16 16 15 16 16 17 18 19 20 21 23 24 25 27 28 29 30 31 31 32 32 32 33 33 34 36 37 38 38 38 39 40 40 40 40 40 40 40 40 40 41 41 41 41 42 42 43 43 43 42 42 42 42 41 40 40 40 40 40 40 40 40 40 40 39 38 37 37 36 35 36 36 36 35 35 36
17 17 17 17 17 17 18 18 17 17 17 16 16 15 16 16 17 18 20 21 22 23 25 26 27 29 31 32 33 34 35 36 36 37 38 39 39 40 40 41 41 41 41 40 39 39 38 38 38 38 39 39 39 40 40 41 42 42 42 42 43 44 44 44 43 43 42 42 43 42 42 43 42 40 39 38 37 36 36 37 37 36 36 36 37
21 20 20 20 19 19 19 19 19 19 19 18 18 17 17 17 17 17 19 20 21 22 24 25 26 27 29 31 32 34 35 37 38 40 41 41 42 42 42 42 43 43 43 42 41 40 39 39 39 38 38 37 37 37 38 39 40 40 41 41 42 42 43 43 43 43 43 43 43 42 43 43 41 40 41 40 38 38 39 39 38 38 38 39 39
23 22 22 22 22 21 21 21 20 20 20 21 21 21 20 20 19 19 19 19 20 22 23 25 26 27 28 30 31 33 34 35 37 39 40 42 43 44 44 44 45 45 44 44 43 42 41 41 41 40 39 39 38 38 38 39 39 39 40 40 40 40 40 40 41 41 42 43 43 43 43 42 41 41 43 42 40 40 40 40 40 40 40 41 40
24 24 23 23 23 23 22 22 22 22 22 22 22 22 23 23 22 22 21 20 20 21 23 24 26 28 29 30 31 32 34 35 37 38 39 40 42 43 44 45 46 46 46 45 44 43 43 43 42 42 41 40 40 40 40 41 41 41 41 41 40 40 39 39 39 40 40 41 42 42 41 40 40 41 42 41 39 39 39 40 41 40 40 39 38
25 25 24 24 23 23 23 23 23 23 23 23 24 24 24 24 23 23 22 22 21 22 23 24 25 27 29 30 31 32 34 36 37 38 39 40 41 42 43 44 45 46 47 47 47 46 45 45 44 43 42 42 42 42 42 42 43 43 43 42 41 40 38 38 38 38 39 40 41 39 38 38 39 39 38 38 38 38 38 38 38 39 39 38 38
26 26 25 25 24 24 24 24 23 23 24 24 24 25 24 24 23 23 22 22 22 22 23 23 24 25 27 28 28 29 32 34 36 38 39 40 42 43 44 44 44 45 46 47 47 48 48 47 47 46 45 44 44 44 44 44 44 44 44 44 42 40 39 38 38 38 39 39 39 38 37 38 38 37 36 36 37 37 36 37 39 39 38 37 39
28 27 26 25 25 24 24 24 23 24 24 24 24 24 24 24 23 23 23 23 23 23 22 22 22 23 24 25 25 26 28 30 31 33 36 38 40 42 43 44 44 44 44 45 46 47 48 48 48 48 47 47 46 46 46 46 46 46 46 45 43 42 41 40 39 40 41 41 41 39 38 38 38 38 37 37 37 36 37 39 39 37 37 39 40
28 28 27 26 25 24 24 24 23 24 24 24 24 24 24 24 23 23 23 23 23 23 23 23 23 23 24 24 24 24 25 26 27 27 29 32 34 37 39 40 40 39 39 42 43 44 45 46 47 48 48 48 47 48 48 49 49 48 47 46 45 44 42 41 41 42 42 42 41 40 39 39 39 38 38 38 37 37 38 39 37 36 39 41 41
28 28 28 27 26 26 25 24 24 25 25 24 25 25 25 25 24 24 23 23 23 22 22 21 21 22 22 23 23 23 24 25 26 26 27 28 29 31 33 35 35 34 33 35 38 39 41 42 43 45 46 47 47 48 49 50 50 49 48 47 46 45 42 40 42 42 42 41 41 40 40 40 38 38 38 38 37 37 38 39 37 37 40 40 39
27 27 28 28 28 27 27 26 26 26 26 25 25 26 26 26 26 25 23 22 21 20 19 19 20 20 21 22 22 22 23 24 25 25 26 27 27 28 29 30 31 31 31 32 33 34 35 37 39 41 42 42 44 46 48 49 50 49 47 46 46 44 40 38 39 39 39 39 38 38 37 37 36 37 38 38 37 37 39 39 37 38 40 40 39
26 27 28 28 29 29 29 28 28 28 27 27 27 27 27 28 28 27 26 23 21 19 19 20 21 22 23 23 24 24 23 24 24 24 24 24 24 25 25 26 27 28 29 30 31 31 32 33 35 36 38 39 40 42 43 46 47 46 45 44 42 39 37 37 38 37 37 36 35 34 34 33 34 35 36 37 37 37 38 37 37 39 40 39 40
25 26 27 28 28 29 29 29 29 29 29 29 28 27 27 27 27 28 27 26 24 23 23 24 24 25 25 25 25 25 25 25 25 24 24 24 24 24 24 24 25 25 25 26 27 28 29 29 31 32 34 36 37 38 39 40 42 42 42 41 39 37 37 39 38 36 35 35 33 33 33 33 33 33 34 36 37 37 37 38 38 39 40 39 40
23 24 26 26 27 28 29 30 30 30 30 30 29 29 28 27 27 27 26 26 26 25 25 25 26 27 27 26 26 26 26 26 25 24 24 24 24 25 25 25 26 25 25 25 26 26 27 28 29 31 33 34 35 36 37 37 37 37 37 36 36 37 38 38 36 34 34 33 33 33 33 34 34 33 34 35 36 37 38 38 39 39 39 39 38
22 23 24 25 27 28 29 29 30 30 30 30 30 30 29 29 28 28 27 26 26 26 26 26 27 27 28 28 28 27 27 27 26 25 25 24 24 25 25 25 26 26 25 24 25 26 28 28 29 30 31 33 34 35 35 37 37 36 34 33 34 36 36 35 33 32 32 33 34 34 33 34 34 34 34 36 37 37 37 38 38 39 37 35 32
21 23 24 25 27 28 29 29 30 30 30 30 30 30 30 29 29 29 28 28 27 27 26 26 26 27 28 29 29 29 28 28 27 26 25 25 25 25 25 25 25 25 24 23 23 24 26 28 29 30 30 32 33 33 34 35 37 37 37 37 37 38 37 35 34 33 34 34 34 33 32 33 35 35 35 36 37 37 38 38 37 35 31 28 26
21 22 24 25 26 28 29 29 30 30 30 30 30 30 29 29 29 29 29 29 29 28 28 27 27 27 27 28 29 30 30 30 29 28 27 27 26 26 25 25 25 25 25 24 23 22 23 25 27 29 30 32 33 33 34 35 35 36 38 39 40 40 39 38 37 37 36 35 33 33 34 35 35 36 36 37 38 37 36 33 30 27 25 23 22
21 23 24 25 26 28 29 29 30 30 30 30 30 29 29 29 29 29 29 29 29 29 30 29 29 29 29 28 29 30 31 31 31 30 29 29 28 27 25 24 25 25 24 24 24 23 22 23 25 26 28 30 32 33 33 33 33 33 35 37 39 39 38 38 37 37 36 35 35 36 36 35 35 36 36 36 35 31 28 25 23 22 22 20 19
21 23 24 25 26 28 29 29 29 30 30 30 30 30 30 30 30 30 30 30 30 31 31 32 32 32 32 31 31 31 31 32 32 32 31 30 29 28 26 25 25 25 25 25 24 24 23 23 24 25 26 28 30 32 33 33 34 34 33 34 36 37 37 36 36 35 35 35 36 37 37 36 36 35 33 30 27 23 21 20 20 20 19 17 16
21 23 24 25 26 27 28 29 29 29 29 30 30 30 30 30 30 30 30 31 32 33 34 35 35 35 35 34 33 33 33 32 32 31 31 31 30 28 27 26 26 26 26 26 25 24 25 24 23 23 25 27 29 30 31 32 34 33 32 32 32 34 34 34 33 33 33 34 35 36 36 35 32 29 25 23 21 19 18 18 17 17 17 15 14
23 24 25 26 27 27 27 28 28 29 30 30 30 29 30 30 32 33 33 34 35 36 37 37 38 38 38 37 36 36 35 35 34 31 30 30 29 28 28 28 28 28 28 28 26 25 25 23 22 21 22 24 26 26 27 28 29 29 29 29 29 30 30 30 31 31 31 31 32 32 30 28 24 22 20 18 17 16 16 16 16 16 15 14 14
23 24 25 26 27 27 27 27 27 28 29 31 32 32 32 32 33 35 37 38 39 39 39 40 40 40 40 40 38 37 36 36 36 34 31 29 29 28 28 28 29 30 30 29 27 25 23 22 21 20 21 21 22 22 22 23 24 24 25 25 26 26 27 28 28 29 29 28 27 25 23 21 19 17 16 16 15 15 15 16 15 15 14 14 15
23 24 25 26 26 27 27 27 27 27 27 28 31 33 35 36 37 38 38 39 39 40 41 41 41 41 40 39 39 38 37 37 37 36 33 30 29 29 28 27 29 31 31 29 26 23 21 20 20 19 19 20 19 19 19 20 20 20 21 22 23 23 24 25 25 25 24 23 20 18 17 16 15 15 15 15 15 15 15 15 15 15 14 14 14
23 24 25 26 26 26 26 27 27 28 28 28 29 30 33 36 38 39 39 39 39 40 41 41 41 41 40 39 38 38 38 38 38 37 34 31 30 29 28 28 29 31 30 27 23 22 21 20 19 18 18 17 17 17 17 18 18 18 19 20 20 21 21 21 21 19 18 16 15 14 14 13 14 15 15 15 15 15 15 15 15 14 13 12 12
23 24 25 25 26 26 26 27 28 28 29 30 31 32 33 34 35 36 37 39 40 41 41 41 40 40 40 40 39 38 38 38 38 37 35 31 28 27 28 28 29 30 28 25 22 21 21 20 18 16 15 15 15 16 16 17 17 17 17 18 18 18 17 16 15 14 13 13 13 13 13 14 15 15 15 15 15 15 15 14 14 13 12 11 12
23 24 24 25 26 26 26 28 29 29 31 32 33 35 36 36 35 34 35 37 39 41 42 42 41 40 39 39 39 39 38 38 38 37 35 32 28 26 27 29 28 27 26 24 20 19 20 20 17 14 13 13 13 14 14 14 14 14 14 14 14 13 12 11 11 11 12 12 13 13 14 15 15 15 15 15 15 15 14 13 13 12 11 11 12
23 23 24 24 25 26 27 28 29 30 32 33 35 37 39 39 38 37 37 37 38 39 40 41 41 41 39 39 38 38 38 38 38 36 34 31 28 27 27 28 26 25 25 23 20 18 19 19 17 13 12 12 12 13 13 13 12 12 12 11 10 9 9 10 10 11 12 13 13 14 14 15 15 15 15 15 15 14 13 12 12 11 11 11 11
23 23 23 24 25 26 27 28 30 31 33 34 36 38 39 40 39 39 40 41 41 41 41 41 42 42 41 39 38 38 38 38 37 35 33 30 29 28 28 27 25 23 22 21 19 17 17 18 18 15 13 13 13 14 13 13 12 11 10 9 9 10 10 11 11 12 13 13 14 15 15 16 16 15 15 14 14 13 12 11 10 10 10 10 11
23 23 23 24 25 26 27 29 30 32 33 34 37 38 40 40 40 39 40 41 42 42 42 42 41 41 41 40 39 38 38 37 36 34 32 30 30 29 28 26 23 21 19 18 18 17 16 17 17 15 14 14 14 13 12 11 10 9 9 10 11 11 11 11 12 12 13 13 14 15 15 15 15 14 14 13 12 11 11 10 10 10 10 11 12
22 22 23 24 25 26 27 29 30 32 33 34 36 38 39 40 39 39 40 41 42 42 42 42 41 40 39 39 38 37 37 37 35 33 31 30 30 29 26 23 21 18 17 17 17 16 15 13 12 12 12 12 12 11 10 9 8 9 10 11 11 11 11 11 11 12 13 14 15 15 15 15 14 13 12 12 11 10 10 10 10 11 11 12 13
21 21 22 23 25 26 27 29 30 31 33 34 36 38 39 39 39 39 40 41 42 42 42 43 42 42 40 39 37 37 37 36 35 33 32 30 29 27 24 22 19 16 16 17 17 15 12 11 10 9 9 8 7 7 7 7 8 9 9 9 10 11 11 12 12 13 14 14 14 14 14 13 12 11 11 11 10 10 10 11 11 12 12 13 14
20 21 22 23 25 26 27 29 30 31 32 34 36 38 39 39 39 39 40 41 41 42 42 43 43 43 41 40 37 36 35 35 34 33 32 30 28 25 23 21 18 15 15 16 15 13 10 8 6 5 3 2 3 5 6 7 8 8 8 9 10 11 12 13 13 14 14 14 14 13 12 11 11 10 11 11 11 11 11 12 13 13 13 14 15
20 20 21 23 25 26 27 29 30 31 32 34 36 38 39 39 40 40 40 41 41 42 42 43 43 43 42 40 38 36 34 34 33 32 32 30 28 25 23 20 17 15 14 14 13 10 7 4 3 2 1 1 2 4 5 6 7 8 9 10 10 11 12 13 14 14 14 14 13 12 11 11 10 10 11 11 11 12 13 13 13 13 14 15 17
19 20 21 23 25 26 28 29 30 31 33 34 36 38 39 40 40 40 40 41 41 41 42 42 43 43 42 41 39 36 34 34 33 32 31 30 28 26 23 19 16 14 12 11 10 8 6 4 3 2 1 1 2 3 4 5 7 8 9 10 11 12 13 13 14 14 14 13 12 11 10 10 11 11 12 12 12 13 14 14 14 15 16 17 18
19 20 21 23 24 26 28 29 30 32 33 34 36 38 39 39 39 39 39 40 40 40 40 41 41 42 41 40 39 36 34 34 33 31 29 29 28 27 23 19 15 12 10 9 9 8 8 7 6 5 3 3 3 4 4 5 6 7 9 10 11 12 13 14 14 14 13 12 11 10 10 10 11 12 12 13 13 14 14 15 16 17 18 19 20
19 20 21 22 24 26 27 29 30 31 32 34 35 37 38 39 39 39 39 39 39 39 40 39 40 40 40 39 38 37 34 33 32 31 29 27 27 27 24 20 14 11 10 9 8 9 9 9 8 7 6 5 5 4 4 5 6 7 9 10 11 12 13 13 13 12 11 10 10 10 10 11 11 12 13 13 14 15 16 17 18 18 20 21 21
19 20 21 22 24 26 27 28 29 31 32 33 35 36 38 38 39 38 38 37 38 38 39 38 38 38 39 38 38 37 34 32 31 30 28 26 25 25 25 21 15 11 10 10 10 9 9 9 8 8 7 6 6 5 5 6 6 8 9 10 11 12 12 11 11 10 10 10 10 10 11 11 12 13 13 14 15 16 17 18 19 20 21 22 23
20 20 21 22 24 25 27 28 29 30 32 33 34 36 37 38 38 38 37 36 36 37 37 37 37 37 37 37 37 37 35 33 31 30 28 26 24 23 23 21 17 13 11 12 12 11 10 9 8 7 7 6 6 6 6 6 7 9 10 11 12 12 11 10 10 10 10 9 10 10 11 12 12 13 14 15 16 17 19 20 21 22 23 24 25
21 21 21 22 24 25 26 28 29 30 31 32 34 35 36 37 38 37 36 35 35 35 36 36 36 36 36 36 36 36 35 34 32 30 28 26 24 22 21 20 18 16 14 13 13 12 11 10 8 8 7 7 6 6 7 8 9 10 11 12 12 12 11 10 10 10 10 10 10 11 12 13 13 14 15 16 18 19 20 21 22 23 25 26 26
23 22 22 23 24 25 26 28 29 30 31 32 33 35 36 37 37 37 35 34 34 34 35 35 35 35 34 34 34 34 34 34 33 31 29 26 24 22 20 19 18 17 16 16 14 13 12 11 10 9 8 8 7 8 8 9 10 11 12 13 13 12 11 11 10 10 10 11 11 12 13 13 14 15 16 17 19 19 20 22 23 24 26 27 28
24 24 24 24 24 25 26 27 29 30 31 32 33 34 36 37 37 37 35 33 32 33 33 33 34 34 33 32 32 32 32 33 34 33 31 28 25 23 21 19 17 17 17 17 16 15 13 12 11 10 10 9 9 9 10 11 12 13 14 14 14 13 12 12 11 11 11 12 12 13 13 14 15 16 17 18 19 20 21 22 24 25 26 27 29
25 25 25 25 25 26 26 27 28 29 30 32 33 34 35 36 37 36 34 32 32 32 32 32 33 33 32 31 31 31 30 30 31 32 32 30 27 24 22 20 18 17 16 16 17 16 15 14 12 11 11 11 10 11 11 12 13 14 15 16 16 15 14 13 12 11 12 12 13 13 14 15 16 17 17 18 19 20 21 22 24 25 26 28 29
25 25 26 26 26 26 27 27 28 29 30 31 33 34 35 36 36 35 33 31 30 30 31 31 32 32 31 31 30 30 29 29 29 29 30 31 29 27 24 21 20 18 16 15 15 16 16 16 14 13 12 12 12 12 13 14 15 16 17 17 17 16 15 14 13 12 12 13 13 14 14 15 16 17 18 19 19 20 21 22 23 24 26 27 28
26 26 26 26 27 27 27 28 28 29 30 31 32 33 34 35 35 35 33 31 30 29 30 30 31 31 31 30 30 29 29 29 28 28 29 29 29 28 26 23 21 20 18 16 15 15 16 16 16 15 14 14 13 13 13 14 16 17 18 19 19 18 17 16 15 14 13 13 13 14 15 16 17 18 18 19 20 20 21 22 23 24 25 27 28
Wind_Direction
328 328 324 321 319 316 314 314 313 310 305 300 295 290 285 281 277 274 271 267 264 262 261 260 260 261 261 262 262 260 258 257 257 258 258 259 260 261 261 261 261 262 263 263 263 262 260 259 259 260 261 260 260 261 261 262 263 264 265 266 266 267 267 268 269 271 272 272 271 271 270 270 271 271 272 272 272 272 272 271 271 270 271 272 273
326 326 323 319 317 315 313 311 309 307 305 302 299 296 293 290 285 281 277 274 272 270 267 266 264 263 263 263 263 262 261 260 259 258 258 258 259 260 260 261 261 262 263 263 263 261 259 259 259 260 260 260 261 263 264 264 264 264 264 264 265 265 266 268 269 271 271 271 272 271 271 271 271 271 272 272 272 271 270 270 269 269 269 270 270
324 325 324 321 317 314 312 311 308 305 302 300 297 295 293 291 288 285 282 279 277 275 272 271 269 267 265 264 264 263 263 262 261 260 260 259 260 260 260 261 261 261 262 262 262 261 260 261 261 261 262 263 264 265 265 265 265 265 265 265 265 266 267 268 270 271 273 273 273 272 272 272 272 272 272 272 273 273 272 272 271 270 270 270 270
318 317 315 312 310 307 305 303 302 300 298 296 295 294 292 290 288 285 283 281 280 278 276 274 272 270 267 265 263 262 262 261 261 260 260 260 260 260 260 261 261 261 262 262 262 262 262 263 262 262 262 263 263 263 263 264 265 266 267 267 268 268 269 269 270 272 274 274 275 275 275 275 274 274 275 275 276 277 277 276 275 275 273 272 272
325 324 321 318 315 312 309 306 302 298 295 293 291 289 288 287 286 285 284 282 281 280 278 276 275 274 272 270 267 265 262 260 259 259 258 258 258 258 258 259 259 260 261 261 262 262 262 262 262 262 262 262 262 262 263 264 265 266 268 268 269 270 270 270 271 272 274 276 277 277 277 277 277 278 278 278 279 280 280 280 280 279 278 277 275
355 352 349 344 338 333 327 321 316 311 306 302 297 292 288 285 283 282 281 281 280 280 279 278 277 275 274 273 272 271 269 266 265 263 262 261 260 260 260 260 259 259 259 260 260 260 260 261 261 261 262 263 264 264 265 265 266 268 269 270 271 271 272 272 274 275 276 277 278 279 279 280 281 280 280 281 282 282 282 283 283 283 281 280 279
8 5 1 356 351 347 343 337 331 326 320 316 311 305 299 294 289 286 283 280 278 277 277 276 276 275 274 272 271 270 269 269 268 268 267 265 264 263 263 262 262 261 261 261 261 261 261 262 263 263 264 265 265 265 266 266 266 267 267 268 270 271 272 273 274 275 275 277 278 279 280 280 279 280 281 282 283 283 285 285 283 281 280 280 279
7 4 1 357 354 350 347 343 339 334 330 324 319 314 308 304 300 295 291 287 283 280 278 276 274 273 272 271 270 269 268 267 267 266 266 266 265 265 265 264 264 263 263 262 262 263 263 264 264 265 266 266 266 267 267 267 267 267 266 266 266 267 268 269 270 272 273 274 275 275 276 276 276 278 279 280 281 283 283 280 279 279 279 279 278
0 359 356 353 351 348 345 343 341 338 335 331 326 321 315 310 305 300 296 292 289 286 283 280 278 275 273 272 270 269 269 268 267 266 266 265 265 265 265 265 265 264 264 263 263 264 264 264 265 265 265 266 266 266 267 267 268 267 267 266 265 265 266 266 267 269 270 271 272 273 273 273 275 277 278 278 279 280 279 279 281 282 280 279 279
356 355 353 350 348 345 343 341 340 338 336 334 332 328 323 318 312 305 300 295 292 288 285 282 280 277 275 274 272 271 270 268 268 267 267 266 266 266 266 266 266 266 265 265 265 265 265 265 265 265 265 265 265 266 266 266 266 266 266 266 265 265 265 265 266 266 267 268 270 271 271 272 274 276 276 277 278 279 280 281 282 282 281 283 284
355 353 351 349 347 345 344 342 340 338 336 334 332 330 327 324 319 313 306 299 294 290 286 284 282 279 276 274 273 272 271 270 269 267 267 266 266 266 266 266 266 266 267 267 267 266 266 265 265 265 264 264 264 264 263 263 264 264 265 265 266 266 266 266 266 266 267 267 267 268 269 271 273 274 274 276 278 278 279 280 281 282 283 285 286
356 354 353 351 349 347 346 344 342 340 337 335 333 331 328 326 323 320 314 307 300 294 290 286 283 281 279 276 274 272 272 271 270 269 269 268 268 267 266 266 266 266 266 267 267 267 267 266 266 266 265 264 264 263 262 262 262 262 263 263 264 265 266 267 268 268 268 269 269 269 270 272 272 272 274 276 276 276 277 278 280 281 282 283 286
359 358 356 354 353 350 347 345 342 340 339 337 335 333 331 328 325 321 317 312 306 301 297 293 289 286 284 282 279 276 273 272 271 270 270 269 269 269 269 268 267 267 266 266 266 266 266 266 266 266 266 266 265 264 264 263 263 263 263 263 264 265 267 268 269 271 271 271 271 272 273 273 273 273 274 274 274 275 276 279 281 281 280 282 287
3 2 360 357 355 352 349 347 345 343 342 340 339 337 334 331 328 323 319 314 310 306 302 299 297 294 291 290 288 285 280 277 275 273 271 270 270 270 270 270 269 269 268 267 266 265 265 265 265 265 265 266 266 266 266 265 265 265 265 265 265 265 266 265 266 267 268 268 270 271 272 273 274 274 274 274 275 275 276 279 279 277 278 283 288
5 4 2 360 358 355 353 352 351 350 349 347 345 343 340 337 333 328 324 321 317 315 311 308 306 303 301 299 300 298 292 287 284 281 278 276 274 272 272 271 271 270 269 269 268 267 266 265 264 264 263 264 264 265 265 265 265 265 266 266 266 265 265 264 263 263 263 265 266 268 269 269 271 272 273 273 274 274 276 276 275 276 281 285 285
7 6 5 4 3 2 0 0 360 359 357 355 352 350 348 345 342 337 334 329 326 322 320 318 317 315 313 311 310 308 303 299 296 293 289 286 282 280 278 276 276 275 273 272 270 269 268 266 265 264 263 262 262 262 263 263 264 264 264 265 265 265 265 264 264 264 264 265 265 265 266 266 268 269 271 272 272 272 274 275 275 279 282 281 279
8 9 9 10 10 10 10 10 9 8 7 4 1 360 358 354 350 345 340 335 333 331 330 330 330 328 327 325 323 320 315 309 306 303 300 296 292 290 287 284 283 283 281 277 273 272 270 269 268 266 264 263 261 261 261 261 261 262 262 263 263 263 264 264 265 266 265 265 264 264 265 266 266 266 268 270 271 271 273 273 273 275 277 276 276
10 11 14 15 15 16 16 16 16 16 16 14 11 10 8 5 0 354 348 344 342 343 343 343 342 341 339 336 333 329 324 320 316 311 307 303 299 296 293 291 288 286 283 280 278 277 276 274 272 270 268 266 263 261 260 260 261 261 261 261 261 262 264 264 264 265 265 266 266 267 267 267 266 265 265 268 270 270 271 272 272 274 276 276 276
10 12 15 16 17 18 18 18 19 20 20 20 19 17 14 12 10 7 3 358 353 349 345 341 338 336 335 334 332 330 327 324 322 320 316 312 309 306 303 300 296 292 287 284 281 280 279 279 278 276 274 271 268 266 264 262 262 261 260 260 261 262 261 260 261 262 265 267 267 268 268 268 267 265 264 266 268 269 271 274 274 274 275 276 275
8 9 12 14 15 16 16 17 18 18 19 19 19 18 17 14 12 11 9 6 1 354 347 341 336 332 329 328 327 326 324 323 322 321 320 318 317 316 313 310 306 302 298 293 289 285 281 279 278 276 275 272 270 268 267 265 264 263 261 259 258 257 256 257 258 261 263 264 265 266 267 267 266 265 264 265 267 269 270 271 272 273 274 273 272
4 5 6 8 9 10 10 11 12 13 14 15 15 15 15 14 12 10 7 5 1 356 351 346 341 337 333 330 327 324 322 320 318 317 316 315 315 315 314 312 309 306 303 300 295 290 284 279 277 276 274 273 271 269 267 265 265 263 262 259 256 254 254 255 257 259 260 261 262 264 266 266 265 265 266 267 268 268 269 269 270 271 271 269 270
360 0 1 2 4 4 5 5 5 6 7 8 8 9 10 10 10 8 6 3 360 356 352 347 342 337 335 333 331 327 323 321 318 314 312 310 310 311 312 312 311 307 304 299 294 288 282 278 277 275 274 275 275 273 269 265 262 261 259 257 254 253 252 252 253 255 257 258 261 263 265 265 264 265 267 268 268 268 268 268 268 268 267 268 271
355 356 356 357 359 359 359 359 360 0 0 1 1 2 3 4 4 3 2 1 358 355 351 346 340 334 329 327 327 325 322 320 319 316 312 310 308 308 309 311 312 310 308 305 298 290 282 276 273 273 273 273 274 274 272 268 264 260 256 254 252 251 250 249 249 250 252 255 260 263 262 262 263 266 267 268 268 268 268 267 267 267 268 269 268
351 351 352 353 354 354 354 355 355 356 357 357 356 356 357 358 358 358 357 356 354 352 349 346 342 337 331 324 321 319 317 315 314 314 314 312 310 309 309 310 311 311 310 309 305 297 288 280 275 273 273 272 271 271 271 270 267 261 257 254 253 252 252 252 252 253 253 253 256 259 260 261 264 266 266 267 269 269 269 268 267 267 266 262 258
347 347 348 349 350 350 350 351 352 352 353 353 353 352 352 353 353 353 352 351 349 347 345 343 340 338 335 330 324 319 314 310 307 307 309 311 312 311 309 309 311 311 310 309 308 303 294 286 280 277 277 277 275 272 271 272 272 268 261 257 254 253 253 254 256 257 256 253 254 258 261 263 266 267 268 269 270 269 268 265 262 260 256 251 245
343 344 344 346 347 347 348 348 349 349 350 350 349 349 349 349 349 348 347 346 343 341 339 337 335 333 332 330 328 323 317 311 304 300 300 303 308 310 308 307 309 311 310 307 305 305 300 291 282 279 279 280 278 275 271 270 271 272 269 263 257 254 252 252 253 255 256 255 256 259 262 265 267 268 269 268 266 263 259 256 252 249 244 239 233
339 340 340 342 344 345 345 346 346 347 347 346 346 346 346 345 345 344 343 342 340 338 335 333 332 330 328 327 327 325 323 318 310 302 297 297 301 306 307 306 307 310 311 307 302 302 303 298 288 281 280 280 280 278 274 269 268 269 269 266 260 255 252 250 251 253 256 258 258 259 261 264 265 265 263 260 257 253 248 243 238 234 230 226 224
334 336 338 339 341 343 344 345 345 344 344 343 344 344 343 343 342 341 341 340 339 337 334 332 330 328 326 325 325 326 326 324 320 312 303 297 296 299 302 305 306 308 309 307 301 300 303 301 293 286 283 282 281 281 278 273 269 267 267 265 261 257 254 252 251 253 255 256 257 258 259 259 258 256 253 250 246 240 234 228 224 221 218 214 216
330 333 335 337 339 341 342 343 344 343 343 342 342 342 342 342 342 340 339 339 338 337 336 334 332 331 329 328 327 327 327 327 325 321 312 302 296 295 297 300 305 308 309 306 299 296 299 300 295 288 285 282 282 282 281 277 273 269 265 263 260 257 254 252 251 252 253 254 255 255 254 252 249 245 240 235 230 222 218 216 213 210 208 209 215
328 331 333 335 337 339 340 341 342 342 342 342 342 341 341 341 341 340 339 339 339 339 339 338 336 335 334 332 331 329 329 329 329 327 320 310 301 298 297 300 304 307 308 305 297 291 293 296 293 288 285 283 283 283 282 279 275 269 264 261 258 255 253 252 252 251 251 251 249 247 245 242 236 229 222 219 214 209 207 207 205 205 206 209 217
328 330 332 334 336 338 339 340 340 340 341 342 342 341 341 339 339 340 341 342 343 343 342 341 340 339 337 336 335 333 332 332 332 331 327 318 306 302 303 304 306 307 308 303 294 289 292 293 289 286 285 284 284 283 281 279 274 269 264 260 257 254 252 251 250 248 245 242 238 234 229 223 216 212 209 206 202 200 201 202 202 205 207 211 221
328 330 332 334 335 337 338 339 339 339 340 341 341 342 341 341 341 342 343 345 346 345 345 344 343 341 340 338 337 336 335 335 334 334 332 324 312 306 305 307 308 309 308 301 291 288 291 292 288 285 283 282 281 280 278 276 272 268 263 259 256 254 251 248 244 239 232 226 221 215 209 203 202 202 199 195 193 195 199 201 202 206 210 217 228
328 330 332 334 335 337 338 339 339 339 340 341 342 342 342 343 346 347 348 348 348 347 346 345 345 344 342 340 339 338 338 337 337 336 335 330 319 310 308 311 312 312 309 301 289 285 291 293 289 283 281 279 278 277 275 273 270 267 263 259 255 250 244 238 229 220 212 206 202 198 195 193 193 192 190 190 192 194 197 199 203 210 217 224 235
328 331 333 334 335 336 338 338 339 339 341 342 342 343 344 346 348 349 351 351 351 349 348 347 346 346 345 343 342 341 340 340 340 340 338 333 325 316 313 315 316 313 309 302 290 281 286 290 287 279 274 275 277 275 273 270 267 265 262 255 245 233 219 210 204 197 191 189 188 188 186 186 186 187 189 190 192 193 198 203 209 217 225 234 244
329 331 334 335 336 337 338 338 339 340 341 343 343 343 345 347 349 350 351 352 351 350 350 350 348 347 347 346 345 344 343 342 342 343 341 337 331 324 319 319 318 314 309 305 295 286 285 288 286 282 278 280 280 276 270 267 264 258 247 230 214 201 192 187 185 183 182 182 182 181 181 183 186 187 189 190 193 198 205 212 218 225 235 245 253
329 331 334 335 336 337 338 338 339 340 342 343 343 344 346 348 349 351 351 351 351 350 351 352 350 349 348 348 347 346 346 345 344 344 342 339 335 330 325 323 321 316 309 306 303 298 292 287 285 283 282 283 282 274 266 261 253 237 216 200 191 182 178 178 179 179 178 178 178 179 182 185 186 187 189 193 201 209 215 221 228 235 245 253 260
328 331 334 335 336 337 337 338 339 340 341 343 344 345 347 348 349 350 351 351 350 350 351 352 352 351 350 350 349 348 348 347 346 345 343 340 338 334 329 326 323 318 312 311 309 303 294 287 284 280 277 276 274 266 256 244 223 201 190 185 179 173 171 173 175 176 175 177 179 182 184 184 185 188 195 203 212 219 224 230 237 244 252 259 266
327 330 333 334 335 336 337 337 338 339 341 342 344 346 347 349 349 350 350 350 349 350 351 352 352 352 352 352 351 351 350 349 348 348 346 343 340 337 333 328 325 321 319 319 316 307 296 287 284 281 276 268 258 240 222 204 190 182 179 176 173 170 170 172 174 176 177 179 181 182 183 185 189 197 207 215 222 227 232 238 243 250 257 265 273
326 330 333 334 335 336 336 336 337 339 341 342 344 346 348 349 349 349 349 349 349 350 351 352 353 353 353 352 352 353 352 351 351 350 349 346 343 340 336 330 326 323 323 323 321 314 303 293 290 289 281 249 209 193 185 181 177 175 174 174 173 173 173 174 176 178 179 180 181 182 185 192 200 209 219 226 230 234 238 241 247 254 263 272 278
326 330 333 334 335 335 335 335 337 339 341 343 344 346 348 349 349 349 349 348 348 350 351 352 353 353 353 352 352 353 354 353 352 353 352 349 346 342 338 333 328 325 327 328 327 322 318 322 342 10 45 173 190 185 181 180 177 175 177 178 177 177 177 178 179 179 179 180 184 189 196 204 213 221 228 233 236 239 243 248 254 260 268 274 279
325 330 333 335 335 335 335 335 337 339 341 343 345 346 348 348 349 348 348 347 347 349 350 351 352 353 354 353 352 353 354 353 352 353 354 352 348 344 341 336 331 329 333 339 339 336 339 357 10 15 13 289 233 213 200 191 186 184 185 183 181 180 182 182 181 180 182 186 193 201 208 216 224 231 235 238 241 245 249 255 261 266 271 276 279
324 330 334 335 335 335 334 335 337 339 341 343 344 346 347 348 348 348 346 346 346 347 349 350 352 353 354 354 353 352 353 353 353 353 354 353 349 346 342 339 334 333 340 351 354 352 351 353 352 343 325 298 267 243 224 206 198 196 193 189 187 186 186 185 184 186 191 198 206 213 221 229 235 240 242 245 248 252 256 261 266 270 274 278 281
324 330 334 335 335 334 334 335 337 339 341 342 343 345 347 348 347 347 346 345 345 346 347 349 350 351 353 355 354 353 352 352 353 353 353 353 351 348 345 342 338 336 343 352 357 356 352 348 343 335 322 306 286 260 239 221 210 204 200 199 199 195 191 190 193 197 205 213 220 229 237 242 246 250 253 255 258 260 264 267 269 273 276 279 282
324 330 334 334 334 334 334 336 337 339 340 342 343 345 347 347 347 346 345 343 343 344 345 347 349 350 352 354 355 354 353 352 352 352 352 352 351 350 347 344 339 337 341 346 346 346 345 342 338 332 321 308 292 270 249 234 222 213 209 208 207 202 199 200 204 212 222 230 237 245 251 255 259 262 264 266 268 269 271 272 274 277 280 282 285
323 329 332 333 334 334 334 335 337 338 340 342 343 345 346 346 346 345 343 342 342 343 344 346 347 347 349 352 354 355 356 354 352 351 351 351 351 351 349 345 338 333 335 339 338 337 338 336 332 325 315 302 286 267 249 238 231 224 217 213 210 206 205 209 217 227 237 247 255 262 264 267 270 272 273 275 276 276 277 278 280 282 283 285 287
322 327 330 331 332 333 334 335 337 338 340 342 343 344 345 345 345 343 342 341 341 342 343 344 345 345 347 349 352 354 356 356 355 352 350 350 350 350 349 345 338 331 330 334 334 332 331 330 326 319 308 294 279 263 247 236 232 228 224 219 213 210 212 221 230 241 252 261 268 272 274 276 278 279 280 281 282 282 284 284 285 286 287 288 289
320 323 326 328 330 331 332 334 336 338 340 341 342 343 344 344 344 343 341 340 340 341 342 343 343 343 345 347 349 351 354 356 356 354 351 348 348 347 347 344 338 330 327 328 329 328 327 326 322 315 304 290 277 262 248 239 235 231 226 222 218 216 221 230 239 250 261 268 274 278 281 284 285 285 286 287 287 288 289 289 289 290 290 290 291
318 320 322 324 326 328 331 333 335 337 339 341 341 342 343 343 343 342 340 339 339 340 341 342 341 341 342 344 346 348 351 353 355 355 354 350 347 345 343 342 339 332 326 324 324 325 324 321 319 313 305 293 280 266 254 247 242 237 230 225 221 221 227 236 246 256 265 271 276 280 284 286 288 289 290 291 292 294 295 295 296 296 296 296 296
315 317 319 321 323 325 328 331 333 336 338 340 340 341 342 342 342 341 339 337 337 339 341 341 340 340 340 341 343 345 347 349 352 354 355 353 350 345 341 339 337 333 327 321 319 319 319 318 317 312 304 296 285 273 263 254 248 243 236 230 226 226 229 236 246 257 267 273 278 282 285 288 290 292 293 295 297 300 302 303 304 305 305 304 303
313 315 317 318 320 322 326 329 331 334 336 338 339 340 340 341 341 340 337 336 336 338 340 341 340 339 339 340 341 342 344 345 347 349 352 354 353 349 343 337 333 331 328 322 315 312 312 314 315 311 304 296 288 279 270 261 254 248 241 236 234 234 235 238 243 251 261 271 278 282 286 289 291 293 295 297 300 303 306 308 309 311 311 310 309
311 313 314 316 318 320 323 326 329 332 334 336 337 338 339 340 340 339 336 334 335 337 339 339 339 339 338 339 340 340 341 342 343 344 346 349 352 352 349 343 334 329 325 321 315 309 305 306 308 309 305 298 290 282 275 267 259 252 246 242 241 241 243 245 247 250 255 263 271 278 284 288 290 292 294 296 299 302 306 309 311 313 314 314 313